Погода Пушкинские Горы

Хотите узнать прогноз погоды Пушкинские Горы? Тогда Вам сюда: Погода Пушкинские Горы

Поиск расширенной информации на нашем сайте:

Полезная информация:

Новости сайта



02.01.2020
Опубликован Долгосрочный прогноз погоды по городам России и ближнего зарубежья на январь 2020 года.
Карты: Прогноз на январь и февраль 2020 года, Сравнение прогнозируемой аномалии приземной температуры воздуха на январь 2020 года по разным моделям.




Погода Пушкинские Горы - сегодня

Время (UTC), дата Ветер
(°,м/с) 
Видим.   Явления Облачность Т
(°С)
Тd
(°С)
f(%) Тe
(°С)
Pmin
(гПа)
dP
(гПа)
Po
(мм)
O2
(г/м3)
Тmin Tmax R s Состояние
почвы
18 24.01.20 280 (З) 5{10}  20000 м  в посл. час ливневой дождь  10/10 300 м кучево-дожд. 
[Cb cap]
+4.7 +3.5 92 +3  1002.2  0.4  742  294    +5.2     
21 24.01.20 260 (З) 20000 м    10/10 300 м кучево-дожд. 
[Cb cap]
+3.8 +2.3 90 +2  1003  0.7  743  295           
00 25.01.20 260 (З) 20000 м    10/10 300 м кучево-дожд. 
[Cb cap]
+3.3 +1.6 89 +1  1002.4  -0.6  743  295           
03 25.01.20 250 (З) 20000 м    3/3 600 м кучево-дожд. 
[Cb cap]
+2.2 +1.2 93 +1  1001.3  -1.2  742  296  +2.2    0.4     
06 25.01.20 260 (З) 20000 м    1/0 верхняя 
[Ci fib]
+2.3 +0.7 89 1001  -0.3  741  296  +2.1         
09 25.01.20 280 (З) 4{10}  20000 м    9/9 600 м кучево-дожд. 
[Cb cap]
+3.3 +0.5 82 +1  1002.5  1.6  743  296           
12 25.01.20 290 (З) 7-13{13}  20000 м    8/8 600 м кучево-дожд. 
[Cb cap]
+3.7 -4 57 +1  1003.7  1.2  743  296           
15 25.01.20 290 (З) 4{12}  20000 м    9/6 600 м верхняя 
[Cu med, cong|Ci fib]
+1.9 -4 65 1006.3  2.4  745  299           
18 25.01.20 290 (З) 2{13}  20000 м    ясно 
+0.3 -4.1 72 1008.7  2.3  747  301    +4.1       
21 25.01.20 270 (З) 20000 м    ясно 
-0.9 -4 79 -2  1011  2.3  749  303           
00 26.01.20 270 (З) 20000 м    ясно 
-1.6 -3.5 87 -3  1012.5  1.4  750  304           
03 26.01.20 220 (ЮЗ) 20000 м    ясно 
-1.6 -3 90 -3  1012.7  0.2  750  304  -2.3         
06 26.01.20 210 (ЮЗ) 20000 м    10/10 300 м кучево-дожд. 
[Cb cap]
-0.5 -1.3 94 -1  1012  -0.6  749  303  -2.3         
09 26.01.20 220 (ЮЗ) 20000 м    10/10 300 м кучево-дожд. 
[Cb cap]
+0.8 -0.7 90 -2  1010.7  -1.2  749  301           
12 26.01.20 250 (З) 5{10}  20000 м    10/10 300 м кучево-дожд. 
[Cb cap]
+3.3 +1.2 86 +1  1008.8  -1.8  747  297           
15 26.01.20 250 (З) 4{10}  10 км  в посл. час ливневой дождь  10/10 300 м кучево-дожд. 
[Cb cap]
+3.9 +2.4 90 +2  1008.9  0.1  747  296      0.0     
18 26.01.20 260 (З) 5{10}  10 км  {ливн. осадки}  10/10 300 м кучево-дожд. 
[Cb cap]
+4 +2.2 88 +2  1010  1.1  748  297    +4.4  0.0     
21 26.01.20 260 (З) 10 км  слаб. ливневой дождь  10/10 300 м кучево-дожд. 
[Cb cap]
+3.5 +2.6 94 +2  1010.8  0.8  749  297           
00 27.01.20 250 (З) 10 км  слаб. ливневой дождь  10/10 300 м кучево-дожд. 
[Cb cap]
+2.9 +2.5 97 +2  1011.4  0.6  749  298           
03 27.01.20 250 (З) 4000 м  слаб. морось  10/10 200 м 
[St]
+2.8 +2.6 99 +2  1011.4  749  298  +2.8    0.5     
06 27.01.20 210 (ЮЗ) 20000 м  {ливн. осадки, морось}  10/10 600 м 
[Sc]
+2.5 +2.2 98 +3  1011.7  0.3  749  299  +2.5    0.6     
09 27.01.20 220 (ЮЗ) 4000 м  слаб. морось  10/10 300 м 
[St]
+2 +1.7 98 +1  1012.2  0.4  750  300           
12 27.01.20 240 (ЮЗ) 4000 м  слаб. морось  10/10 300 м 
[St]
+2 +1.7 98 +1  1011.5  -0.7  749  299           
15 27.01.20 210 (ЮЗ) 10 км  слаб. ливневой дождь{морось}  10/10 300 м кучево-дожд. 
[Cb cap]
+0.9 +0.6 98 +2  1010.9  -0.6  749  301         
18 27.01.20 180 (Ю) 4000 м  слаб. ливневой снег  10/10 300 м кучево-дожд. 
[Cb cap]
+0.2 -0.1 98 +1  1010.2  -0.8  748  301    +2.5     
Время (UTC), дата Ветер
(°,м/с) 
Видим.   Явления Облачность Т
(°С)
Тd
(°С)
f(%) Тe
(°С)
Pmin
(гПа)
dP
(гПа)
Po
(мм)
O2
(г/м3)
Тmin Tmax R s Состояние
почвы

Для получения пояснительной информации подведите курсор к названию столбца.

ПОГОДА Пушкинские Горы - архив

Всё, что Вы хотите узнать о погоде Пушкинские Горы - удобно и подробно!

Выберите нужную дату (начиная с 1 января 2019* года) и нажмите кнопку "Найти".
Будут отображены архивные сводки погоды по пункту Пушкинские Горы, начиная с указанной даты.


Отображать данные в формате CSV (для использования в таблицах Excel)


Внимание! Наш архив погоды предназначен исключительно для личного некоммерческого использования в познавательных целях. Если Вам необходимы официальные справки о состоянии погоды (для производственных, юридических, коммерческих и т.п. целей), обращайтесь в органы Росгидромета.

*Примечание: данная дата относится к архиву по метеостанциям СССР (Россия, СНГ, Балтия).
Архив по метеостанциям Зарубежной Европы и Азии (кроме Китая) хранится 10 дней, по другим регионам земного шара (Китай, Африка, Америка, Австралия, Океания) - 1 день.

Пушкинские Горы - район местоположения метеостанции


Название, широта, долгота, высота метеостанции:
Пушкинские Горы 57°ш. 28.9°д. 108 м над ур. моря [Российская Федерация]

Дополнительная информация

В oтличие oт бoльшинства пoгoдных сайтoв мы публикуем пoдрoбную метеoинфoрмацию в детальнoм прoфессиoнальнoм фoрмате.

Характеристики температуры и влажнoсти вoздуха измеряются на высoте 2 м в тени вдали oт зданий и деревьев.
Скoрoсть ветра измеряется на высoте 10 м (на урoвне рoста челoвека скoрoсть ветра ниже в 1.5-2 раза). Если метеoстанция нахoдится в гoрoде или в лесу, тo скoрoсть ветра занижена на 2-4 м/с пo сравнению с oткрытым местoм. Скoрoсть ветра над акватoриями крупных рек и oзёр, а также на вершинах хoлмoв на 2-5 м/с выше, чем в oбычных услoвиях.
Атмoсфернoе давление в разных тoчках местнoсти мoжет значительнo oтличаться oт давления на метеoстанции, в зависимoсти oт услoвий рельефа (при пoдъёме на 10 м давление пoнижается примернo на 1 мм рт.ст.).